CAPE
50 137 482 354 390 474 499 560 692 814 1076 1103 1035 1003 1052 798 806 926 1128 936 859 449 673 667 800 754 565 556 559 697 658 487 384 270 194 27 20 26 20 10 5 1 9
68 186 424 475 483 409 343 578 645 757 1047 1120 1055 961 957 921 903 872 1348 804 596 571 558 359 320 268 290 328 623 500 520 502 379 284 172 31 14 10 12 9 8 5 7
121 129 225 512 650 642 553 614 658 736 1010 1040 930 899 938 1162 1196 1208 1081 576 909 865 302 204 168 105 151 385 469 413 318 244 158 93 4 0 0 9 10 9 29 65 114
66 45 134 508 617 680 643 648 701 771 951 1084 1111 1149 1306 1404 1312 1163 970 1133 905 625 166 78 52 16 142 349 300 141 158 136 78 46 0 0 7 73 93 76 161 171 81
23 11 176 471 550 689 677 668 685 720 867 988 1071 1181 1131 1004 1226 1263 1033 817 815 492 113 0 1 23 243 222 197 291 250 24 37 0 0 0 1 9 70 59 22 19 27
0 12 196 339 530 646 754 665 691 691 698 772 932 1028 963 917 1278 1014 772 577 403 303 69 3 2 32 45 95 154 148 46 0 0 0 0 3 2 201 23 19 25 25 18
24 48 141 268 458 700 791 759 643 591 595 579 726 620 554 986 1132 939 582 360 235 145 22 0 0 0 0 0 1 0 0 0 0 0 0 1 98 12 27 35 22 17 22
34 51 182 431 468 450 584 530 403 412 444 542 639 822 739 969 655 420 205 119 81 24 1 0 0 0 0 0 0 0 0 0 0 0 1 33 124 57 31 30 31 30 25
34 46 98 259 412 322 358 299 262 329 372 487 525 555 710 362 241 160 93 40 5 0 0 0 15 6 19 0 0 0 0 8 0 0 52 71 168 72 36 31 23 16 7
47 29 50 66 23 50 160 214 220 232 271 417 476 289 169 144 115 45 3 2 0 0 13 5 26 66 41 24 4 14 13 17 12 31 60 89 133 87 43 20 9 4 5
2 1 5 1 1 11 84 270 253 376 286 238 173 76 12 0 0 0 0 0 0 0 0 17 21 12 14 29 19 25 27 24 38 31 27 82 71 29 21 10 7 3 4
0 0 0 0 0 29 170 112 58 210 82 13 0 0 0 0 0 0 0 0 0 0 0 15 2 0 0 0 5 39 71 40 30 14 12 36 29 22 12 8 4 5 5
0 4 0 0 0 0 6 3 19 1 0 0 0 0 0 0 0 0 0 0 0 0 0 0 0 0 0 0 0 11 23 28 3 1 3 9 21 14 8 6 5 4 3
2 0 0 0 0 0 0 0 0 0 0 0 0 0 0 0 0 0 0 0 0 0 0 0 0 0 0 0 0 0 5 1 0 0 2 0 7 7 9 4 3 3 3
3 0 0 0 0 0 0 0 0 0 0 0 0 0 0 0 0 0 0 0 0 0 0 0 0 0 0 0 0 0 0 0 0 0 0 3 15 9 4 5 5 4 5
30 4 2 0 0 0 0 0 0 0 0 0 0 0 0 0 0 0 0 0 0 0 0 0 0 0 0 0 0 0 0 0 0 0 0 1 10 9 4 4 5 5 8
45 11 1 0 0 0 0 0 0 0 0 0 0 0 0 0 0 0 0 0 0 0 0 0 0 0 0 0 0 0 0 0 0 0 0 0 0 0 5 1 2 4 6
60 16 0 0 0 0 0 0 0 0 0 0 0 0 0 0 0 0 0 0 0 0 0 0 0 0 0 0 0 0 0 0 0 0 0 0 0 0 0 0 0 0 3
80 19 0 0 0 0 0 0 0 0 0 0 0 0 0 0 0 0 0 0 0 0 0 0 0 0 0 0 0 0 0 0 0 0 0 0 0 0 0 0 0 0 0
83 20 0 0 0 0 0 0 0 0 0 0 0 0 0 0 0 0 0 1 0 0 0 0 0 0 0 0 1 0 0 0 0 0 0 0 0 0 0 0 0 0 0
64 14 9 0 0 0 0 0 0 0 0 0 0 0 0 0 0 0 0 2 1 0 0 0 0 0 0 0 0 0 0 0 0 0 0 0 0 0 0 0 0 0 0
74 67 25 8 0 0 0 0 0 0 0 0 0 0 0 0 0 0 0 0 0 0 0 0 0 0 0 0 0 0 0 0 0 0 0 0 0 0 0 0 0 0 0
72 81 52 42 32 0 0 0 0 0 0 0 0 0 0 9 0 0 0 0 0 0 0 0 0 0 0 0 0 0 0 0 0 0 0 0 0 0 0 0 0 0 0
137 160 98 52 59 6 0 0 0 0 0 0 0 0 0 14 7 2 0 0 0 0 0 0 0 0 0 0 0 0 0 0 0 0 0 0 0 0 0 0 0 0 0
213 175 138 34 52 49 9 0 0 0 0 10 0 0 2 0 0 0 0 0 0 0 0 0 0 0 0 0 0 0 0 0 0 0 0 0 0 0 0 0 0 0 0
192 165 136 10 34 63 10 15 26 18 0 80 34 16 52 7 0 0 0 0 0 0 0 0 0 0 0 0 0 0 0 0 0 0 0 0 0 0 0 0 0 0 0
CIN
-302 -183 -23 -0 -0 -0 -0 -0 -0 -2 -0 -0 -6 -8 -2 -20 -10 -5 -0 -2 -6 -19 -0 -2 -4 -10 -27 -30 -31 -31 -0 -0 -3 -4 -15 -112 -126 -114 -93 -0 -0 -0 -0
-329 -153 -24 -0 -0 -0 -0 -0 -0 -3 -0 -0 -0 -1 -5 -5 -9 -16 -0 -6 -3 -0 -0 -15 -56 -50 -52 -32 -38 -4 -0 -0 -0 -2 -13 -91 -119 -0 -0 -0 -0 -0 -0
-255 -156 -64 -0 -0 -0 -0 -0 -0 -1 -0 -0 -0 -2 -0 -0 -1 -0 -0 -4 -0 -0 -9 -27 -50 -99 -99 -56 -12 -0 -0 -1 -10 -36 -50 -0 -0 -0 -0 -0 -56 -34 -13
-267 -208 -88 -0 -0 -0 -0 -0 -0 -0 -0 -0 -0 -0 -0 -0 -0 -0 -1 -0 -0 -0 -37 -96 -128 -142 -62 -30 -22 -14 -10 -17 -44 -20 -0 -0 -40 -33 -11 -26 -0 -2 -15
-277 -173 -60 -0 -0 -0 -0 -0 -0 -0 -0 -0 -0 -0 -0 -0 -0 -0 -1 -0 -0 -3 -56 -0 -35 -77 -35 -38 -20 -3 -6 -67 -50 -0 -0 -0 -4 -0 -0 -0 -0 -0 -2
-0 -181 -44 -8 -0 -0 -0 -0 -0 -1 -0 -0 -0 -0 -0 -0 -0 -0 -1 -0 -14 -22 -68 -60 -114 -76 -90 -71 -37 -26 -51 -0 -0 -0 -0 -1 -3 -0 -0 -0 -0 -1 -1
-202 -179 -70 -15 -1 -0 -0 -0 -0 -1 -1 -3 -0 -3 -5 -0 -0 -1 -13 -49 -60 -83 -87 -0 -0 -0 -0 -0 -5 -0 -0 -0 -0 -0 -0 -3 -22 -0 -0 -0 -0 -0 -0
-201 -151 -12 -0 -0 -0 -0 -1 -7 -8 -5 -1 -2 -0 -0 -0 -4 -25 -69 -84 -102 -111 -38 -0 -0 -0 -0 -0 -0 -0 -0 -0 -0 -0 -11 -15 -23 -3 -0 -0 -0 -0 -0
-192 -126 -46 -1 -1 -5 -2 -5 -17 -6 -6 -3 -3 -1 -0 -17 -38 -58 -86 -102 -148 -0 -0 -0 -221 -121 -99 -0 -0 -0 -0 -78 -0 -0 -5 -10 -11 -3 -0 -0 -0 -0 -0
-162 -132 -102 -13 -49 -66 -9 -9 -19 -18 -5 -3 -1 -2 -50 -85 -65 -102 -145 -148 -0 -0 -89 -65 -101 -102 -123 -188 -161 -142 -88 -64 -66 -38 -8 -3 -0 -0 -3 -0 -0 -0 -0
-0 -0 -0 -0 -0 -125 -21 -0 -0 -1 -4 -6 -6 -58 -85 -0 -0 -0 -0 -0 -0 -0 -0 -112 -114 -139 -155 -130 -116 -91 -65 -52 -46 -45 -30 -3 -0 -3 -0 -0 -0 -0 -0
-0 -0 -0 -0 -0 -91 -7 -23 -44 -5 -16 -75 -0 -0 -0 -0 -0 -0 -0 -0 -0 -0 -0 -129 -80 -0 -0 -42 -36 -63 -37 -51 -43 -45 -41 -10 -12 -0 -0 -0 -0 -0 -0
-1 -0 -0 -0 -0 -0 -177 -81 -116 -2 -0 -0 -0 -0 -0 -0 -0 -0 -0 -0 -0 -0 -0 -0 -0 -0 -0 -0 -0 -89 -76 -61 -9 -0 -1 -25 -0 -0 -0 -0 -0 -0 -0
-0 -0 -0 -0 -0 -0 -2 -0 -0 -0 -0 -0 -0 -0 -0 -0 -0 -0 -0 -0 -0 -0 -0 -0 -0 -0 -0 -0 -0 -0 -98 -0 -0 -0 -2 -0 -1 -0 -0 -0 -0 -0 -0
-286 -0 -0 -0 -0 -0 -0 -0 -0 -0 -0 -0 -0 -0 -0 -0 -0 -0 -0 -0 -0 -0 -0 -0 -0 -0 -0 -0 -0 -0 -0 -0 -0 -0 -0 -4 -2 -0 -0 -0 -0 -0 -0
-465 -138 -0 -0 -0 -0 -0 -0 -0 -0 -0 -0 -0 -0 -0 -0 -0 -0 -0 -0 -0 -0 -0 -0 -0 -0 -0 -0 -0 -0 -0 -0 -0 -0 -0 -3 -5 -0 -0 -0 -0 -0 -0
-444 -528 -0 -0 -0 -0 -0 -0 -0 -0 -0 -0 -0 -0 -0 -0 -0 -0 -0 -0 -0 -0 -0 -0 -0 -0 -0 -0 -0 -0 -0 -0 -0 -0 -0 -0 -0 -0 -0 -0 -0 -0 -0
-483 -528 -0 -0 -0 -0 -0 -0 -0 -0 -0 -0 -0 -0 -0 -0 -0 -0 -0 -0 -0 -0 -0 -0 -0 -0 -0 -0 -0 -0 -0 -0 -0 -0 -0 -0 -0 -0 -0 -0 -0 -0 -0
-494 -505 -0 -0 -0 -0 -0 -0 -0 -0 -0 -0 -0 -0 -0 -0 -0 -0 -0 -0 -0 -0 -0 -0 -0 -0 -0 -0 -0 -0 -0 -0 -0 -0 -0 -0 -0 -0 -0 -0 -0 -0 -0
-447 -484 -1 -0 -0 -0 -0 -0 -0 -0 -0 -0 -0 -0 -0 -0 -0 -0 -0 -59 -0 -0 -0 -0 -0 -0 -0 -0 -0 -0 -0 -0 -0 -0 -0 -0 -0 -0 -0 -0 -0 -0 -0
-383 -461 -529 -0 -0 -0 -0 -0 -0 -0 -0 -0 -0 -0 -0 -0 -0 -0 -0 -103 -216 -0 -0 -0 -0 -0 -0 -0 -0 -0 -0 -0 -0 -0 -0 -0 -0 -0 -0 -0 -0 -0 -0
-439 -452 -504 -582 -78 -0 -0 -0 -0 -0 -0 -0 -0 -0 -0 -0 -0 -0 -0 -0 -0 -0 -0 -0 -0 -0 -0 -0 -0 -0 -0 -0 -0 -0 -0 -0 -0 -0 -0 -0 -0 -0 -0
-437 -443 -495 -539 -558 -0 -0 -0 -0 -0 -0 -0 -0 -0 -0 -361 -0 -0 -57 -0 -0 -0 -0 -0 -0 -0 -0 -0 -0 -0 -0 -0 -0 -0 -0 -0 -0 -0 -0 -0 -0 -0 -0
-481 -439 -470 -514 -498 -517 -0 -0 -0 -0 -0 -0 -0 -0 -0 -436 -443 -170 -0 -0 -0 -0 -0 -0 -0 -0 -0 -0 -0 -0 -0 -0 -0 -0 -0 -0 -0 -0 -0 -0 -0 -0 -0
-495 -461 -481 -548 -483 -502 -602 -36 -12 -0 -0 -372 -8 -0 -288 -0 -0 -0 -0 -0 -0 -0 -0 -0 -0 -0 -0 -0 -0 -0 -0 -0 -0 -0 -0 -0 -0 -0 -0 -0 -0 -0 -0
-444 -451 -441 -510 -459 -438 -609 -506 -408 -431 -21 -319 -367 -382 -314 -408 -0 -0 -0 -0 -0 -0 -0 -0 -0 -0 -0 -0 -0 -0 -0 -0 -0 -0 -0 -0 -0 -0 -0 -0 -0 -0 -0
Wind_Speed
6 5 11 12 11 11 12 11 12 16 19 20 21 22 22 22 19 16 14 13 13 18 17 16 18 20 23 25 24 24 19 17 17 17 18 19 19 19 19 18 16 12 17
12 7 12 12 12 15 15 13 14 18 20 20 21 21 20 20 17 15 14 12 15 20 18 18 20 21 23 23 24 20 19 17 16 18 18 19 19 19 18 18 16 14 16
12 8 9 13 14 15 16 15 15 18 20 20 19 19 19 17 15 16 15 14 17 18 19 19 20 22 23 22 20 18 16 16 16 17 17 6 10 18 18 17 16 15 14
11 8 8 15 15 15 16 15 16 18 19 20 18 19 18 17 16 16 15 15 16 17 19 20 21 21 21 19 18 16 15 14 14 13 6 7 12 17 17 16 18 19 20
9 7 10 15 14 15 15 15 16 17 18 19 20 19 18 16 17 16 14 17 17 18 20 20 21 20 17 16 15 13 12 13 13 10 7 7 8 14 18 20 17 18 19
6 6 10 14 13 14 15 15 14 15 16 17 19 19 18 17 17 15 15 16 16 18 20 20 18 16 14 13 12 12 13 13 12 7 8 10 8 19 19 18 17 18 18
6 5 9 13 13 15 14 14 14 12 13 15 18 18 16 15 13 15 14 16 16 17 18 18 15 12 12 12 11 11 13 15 8 8 7 5 9 18 19 19 18 17 17
8 6 9 14 13 14 14 14 13 12 11 11 13 15 15 13 13 12 13 13 14 16 15 14 12 10 9 9 10 11 15 16 11 8 6 6 15 18 19 19 17 17 17
6 7 6 6 11 13 12 12 13 13 12 12 13 14 15 13 13 11 12 12 13 16 13 12 11 10 9 7 11 12 15 17 9 6 8 6 18 17 18 18 18 17 16
7 11 11 4 6 7 9 13 13 13 12 11 15 14 13 13 11 11 11 11 15 13 12 13 12 16 11 8 17 17 16 14 6 7 7 8 16 18 18 17 17 16 16
13 13 11 11 9 6 7 10 12 15 13 12 11 14 11 5 5 7 8 12 14 12 12 15 18 19 19 19 21 19 14 5 7 7 7 16 17 16 16 17 17 16 16
19 16 13 11 13 11 8 9 7 9 6 6 7 5 4 6 5 5 7 13 13 11 11 16 16 15 11 7 8 12 6 8 7 7 7 16 16 15 15 16 16 16 16
20 13 14 13 13 14 9 8 6 4 3 3 6 5 5 5 4 4 3 4 4 7 5 8 8 6 8 6 8 9 10 8 6 6 9 16 15 16 15 16 16 15 15
19 18 17 13 13 12 7 8 9 6 5 4 5 6 5 3 4 4 3 5 5 3 6 6 5 7 8 9 10 10 10 9 6 6 8 15 14 13 14 16 15 14 13
21 20 19 13 11 10 12 4 6 6 6 6 5 5 5 4 5 4 4 4 5 4 6 7 7 7 8 8 8 10 10 10 10 6 5 12 12 13 13 15 14 13 12
19 19 16 15 12 11 10 9 7 6 6 7 7 8 7 5 5 4 4 4 4 4 6 6 7 7 7 7 8 8 8 7 8 7 5 7 12 12 12 13 13 12 12
18 18 18 16 13 14 13 10 7 7 6 7 7 6 6 6 6 6 4 4 4 4 9 8 8 8 8 7 8 7 7 8 8 8 6 5 6 12 11 12 12 11 11
18 19 17 15 14 14 11 10 7 6 6 6 4 4 6 6 7 6 4 4 4 6 7 7 8 7 7 6 6 6 5 6 8 7 6 5 4 4 8 11 11 10 10
20 20 18 17 16 14 11 9 8 7 7 8 5 5 6 7 7 6 5 5 6 6 6 7 5 7 7 6 6 6 5 5 6 6 5 6 6 4 4 10 10 9 8
21 21 19 15 16 14 10 9 6 5 6 5 8 6 7 6 7 6 4 7 9 9 7 5 8 5 6 8 8 6 5 3 3 3 4 4 5 5 5 6 5 5 8
18 21 20 18 16 13 11 11 10 10 6 4 5 7 8 7 8 7 5 7 8 11 12 10 7 10 4 7 6 4 4 4 3 1 2 4 5 4 5 4 3 3 3
23 21 21 20 17 14 12 11 8 10 7 9 8 6 7 9 9 9 10 9 10 8 10 11 12 6 3 7 5 3 2 2 2 0 1 3 5 3 4 4 5 5 4
23 24 23 23 20 15 14 9 5 4 3 6 4 5 6 9 10 11 13 11 10 10 10 12 11 8 9 4 11 6 4 4 2 1 2 3 5 3 3 4 4 5 5
25 22 23 23 22 18 16 14 15 13 11 9 9 7 6 8 11 11 12 12 12 9 11 11 11 8 10 9 5 1 3 6 5 2 1 2 3 4 6 4 5 5 5
25 24 24 23 22 21 18 17 13 12 9 5 6 8 9 6 10 11 11 10 11 9 11 13 12 10 9 8 7 4 2 3 4 4 3 2 1 3 4 5 5 5 6
20 21 20 22 23 20 20 19 19 18 10 9 10 9 9 8 8 11 12 11 11 11 12 11 13 13 9 6 6 4 5 5 4 4 4 2 4 4 3 3 4 5 4
Wind_Direction
174 181 162 164 161 150 140 138 129 135 136 133 131 128 128 127 128 129 119 121 126 126 106 110 105 104 106 106 104 93 97 102 103 101 101 97 95 92 89 87 78 76 78
142 160 159 159 158 144 137 132 127 133 133 130 129 128 127 124 126 130 123 122 120 123 125 117 112 113 110 109 93 100 100 99 111 102 98 96 94 91 88 85 83 80 78
139 150 154 150 151 143 138 130 128 133 133 131 131 127 128 127 129 122 123 131 121 117 121 119 115 113 110 101 104 102 103 103 99 98 97 92 91 90 88 87 87 85 82
140 150 149 141 146 142 138 131 126 129 130 128 126 124 122 118 117 121 131 118 116 116 117 113 112 113 108 106 109 110 105 107 104 101 93 96 93 90 88 85 77 74 74
140 154 146 136 146 142 138 136 129 132 126 128 125 122 120 117 119 125 120 121 121 119 116 115 113 112 110 109 113 111 93 100 89 84 78 70 82 88 84 76 74 70 69
142 150 134 132 142 141 142 141 135 132 131 132 129 128 128 127 121 122 123 120 114 112 110 106 108 110 109 112 124 116 99 91 81 66 71 87 93 97 90 88 83 77 70
146 137 131 129 137 137 139 140 134 131 134 135 135 134 133 126 125 125 120 116 115 112 114 117 120 127 138 144 136 117 106 100 90 81 79 87 101 100 94 87 83 78 78
142 134 135 134 136 134 136 133 129 129 133 134 138 132 127 125 120 117 114 109 111 107 107 116 127 130 135 149 136 116 115 109 99 96 99 95 99 94 90 88 84 81 76
134 130 123 137 134 124 125 129 127 132 137 138 133 132 128 124 118 120 111 112 108 96 108 114 113 114 109 143 151 122 113 112 106 120 101 95 92 94 92 90 87 83 79
137 149 146 134 127 127 134 130 130 126 129 137 133 125 124 120 124 120 118 110 94 106 109 104 102 92 85 83 125 115 110 103 101 88 89 94 97 94 92 92 93 90 85
161 161 157 161 146 130 133 140 130 133 131 131 121 127 118 116 116 116 118 102 100 108 106 102 102 94 81 88 100 104 102 98 92 97 100 100 101 101 105 101 94 93 86
167 167 168 168 157 154 151 144 134 142 135 134 128 116 104 118 121 120 121 106 106 110 101 108 96 84 82 88 88 93 107 106 93 94 100 102 104 108 101 98 95 90 86
168 165 173 171 164 162 161 157 152 139 130 122 131 133 133 128 128 119 110 98 108 107 92 104 82 80 90 93 90 107 111 97 94 95 95 99 108 103 101 98 94 92 90
169 172 170 175 167 164 157 171 161 155 148 149 150 147 139 143 147 145 134 116 107 108 101 100 99 103 96 91 92 98 104 103 104 100 106 108 105 107 101 95 94 92 89
172 172 173 171 170 159 166 160 161 162 163 163 157 166 154 156 160 130 128 120 123 132 126 120 122 117 106 97 91 96 99 106 107 106 107 107 111 106 100 99 97 94 92
176 172 171 173 175 166 165 169 176 164 165 167 172 180 172 161 154 147 151 142 142 145 123 127 123 115 101 101 91 98 100 99 96 97 93 90 95 103 104 102 99 98 93
180 168 175 174 175 175 174 170 176 175 164 173 181 179 173 166 157 150 154 156 160 130 118 113 104 105 106 102 102 100 107 103 100 92 88 82 79 81 92 99 99 96 94
170 172 175 176 178 179 179 166 176 175 177 173 176 179 181 176 161 155 164 156 155 133 122 123 126 110 112 120 113 106 97 100 102 98 94 88 80 73 88 101 103 100 95
170 173 177 177 177 181 177 167 169 173 182 185 176 182 190 181 176 169 169 154 148 135 127 135 117 126 123 112 109 111 108 108 116 117 111 110 108 103 92 102 99 96 94
175 173 177 176 178 177 173 169 164 166 191 201 187 192 183 185 179 169 155 144 151 151 136 122 127 100 126 132 116 86 71 75 92 117 131 120 116 117 112 97 96 97 103
179 175 179 178 180 176 178 176 175 178 184 192 209 203 181 181 180 166 152 150 155 158 157 146 122 126 86 121 103 75 57 52 78 126 144 134 138 141 124 126 129 107 101
181 183 177 182 181 185 182 179 177 179 186 194 200 194 190 171 174 172 160 166 160 149 145 149 147 132 102 175 125 104 127 348 16 199 155 176 167 150 155 165 149 139 119
184 184 183 182 181 186 182 175 163 136 130 182 189 183 195 182 174 171 171 168 158 160 159 163 158 150 159 211 179 138 132 202 129 349 244 205 178 177 180 176 177 161 157
190 186 185 184 180 184 182 181 189 188 188 196 192 198 182 181 176 176 169 167 165 164 166 172 170 165 154 176 198 109 81 142 158 155 282 255 218 195 188 195 188 182 169
183 186 188 185 182 178 181 184 186 190 189 166 181 172 181 176 182 174 171 163 170 167 174 173 174 173 174 162 177 144 105 74 93 130 182 232 284 228 218 195 183 185 180
190 187 183 186 185 185 177 183 187 188 170 169 178 181 183 184 183 176 171 169 177 175 174 182 182 179 177 171 172 163 160 161 173 146 127 156 180 233 220 204 194 192 183